Location: Bednik
(45.3500°N, 16.3833°E)
Time: 15:43:16
(UTC+00:00)

USA 267 - Pass Details

Date: 08 August 2020
Orbit: 1102 x 1106 km, 123.0° (Epoch: 18 September)

Event Time Altitude Azimuth Distance (km) Brightness Sun altitude
Rises 21:21:28 0° 55° (NE) 3,926 6.3 -24.9°
Reaches altitude 10° 21:24:05 10° 48° (NE) 2,967 5.7 -25.1°
Maximum altitude 21:30:06 41° 341° (NNW) 1,546 4.5 -25.5°
Drops below altitude 10° 21:36:08 10° 274° (W) 2,964 5.8 -26.0°
Sets 21:38:45 0° 268° (W) 3,921 6.4 -26.1°
